Time,TemperatureF,DewpointF,PressureIn,WindDirection,WindDirectionDegrees,WindSpeedMPH,WindSpeedGustMPH,Humidity,HourlyPrecipIn,Conditions,Clouds,dailyrainin,SoftwareType,DateUTC
2013-02-22 00:00:00,53.4,27.8,29.80,NNW,331,3.0,5.0,37,0.00,,,0.00,VWS V14.01,2013-02-22 06:00:00,
2013-02-22 00:05:00,53.4,27.8,29.81,NNW,344,0.0,3.0,37,0.00,,,0.00,VWS V14.01,2013-02-22 06:05:00,
2013-02-22 00:10:00,51.3,30.1,29.81,NNW,345,0.0,2.0,44,0.00,,,0.00,VWS V14.01,2013-02-22 06:10:00,
2013-02-22 00:15:00,50.1,29.6,29.81,NNW,344,0.0,1.0,45,0.00,,,0.00,VWS V14.01,2013-02-22 06:15:00,
2013-02-22 00:20:00,47.9,29.7,29.82,SE,146,4.0,5.0,49,0.00,,,0.00,VWS V14.01,2013-02-22 06:20:00,
2013-02-22 00:25:00,47.1,29.9,29.82,ESE,123,0.0,4.0,51,0.00,,,0.00,VWS V14.01,2013-02-22 06:25:00,
2013-02-22 00:30:00,46.8,29.6,29.83,East,80,0.0,1.0,51,0.00,,,0.00,VWS V14.01,2013-02-22 06:30:00,
2013-02-22 00:35:00,46.3,29.2,29.83,ENE,78,0.0,0.0,51,0.00,,,0.00,VWS V14.01,2013-02-22 06:35:00,
2013-02-22 00:40:00,46.2,29.6,29.84,North,2,2.0,3.0,52,0.00,,,0.00,VWS V14.01,2013-02-22 06:40:00,
2013-02-22 00:44:00,46.2,29.1,29.84,North,358,3.0,3.0,51,0.00,,,0.00,VWS V14.01,2013-02-22 06:44:00,
2013-02-22 00:45:00,42.1,29.6,29.90,NW,324,2.0,3.0,61,0.00,,,0.00,VWS V14.01,2013-02-22 06:45:00,
2013-02-22 00:49:00,45.7,29.6,29.85,NNE,20,0.0,2.0,53,0.00,,,0.00,VWS V14.01,2013-02-22 06:49:00,
2013-02-22 00:50:00,43.4,30.0,29.89,NNW,332,0.0,5.0,59,0.00,,,0.00,VWS V14.01,2013-02-22 06:50:00,
2013-02-22 00:54:00,45.1,29.5,29.86,NNE,19,0.0,0.0,54,0.00,,,0.00,VWS V14.01,2013-02-22 06:54:00,
2013-02-22 00:55:00,44.8,30.1,29.89,NNW,345,11.0,11.0,56,0.00,,,0.00,VWS V14.01,2013-02-22 06:55:00,
2013-02-22 00:59:00,44.7,29.5,29.87,NNE,19,0.0,1.0,55,0.00,,,0.00,VWS V14.01,2013-02-22 06:59:00,
2013-02-22 01:00:00,47.4,29.7,29.90,North,358,7.0,11.0,50,0.00,,,0.00,VWS V14.01,2013-02-22 07:00:00,
2013-02-22 01:04:00,44.2,30.4,29.87,North,349,2.0,2.0,58,0.00,,,0.00,VWS V14.01,2013-02-22 07:04:00,
2013-02-22 01:05:00,48.3,29.5,29.90,NNW,333,5.0,7.0,48,0.00,,,0.00,VWS V14.01,2013-02-22 07:05:00,
2013-02-22 01:09:00,44.6,30.8,29.88,NNW,346,2.0,3.0,58,0.00,,,0.00,VWS V14.01,2013-02-22 07:09:00,
2013-02-22 01:10:00,48.6,30.8,29.90,North,350,0.0,5.0,50,0.00,,,0.00,VWS V14.01,2013-02-22 07:10:00,
2013-02-22 01:14:00,45.1,30.4,29.88,NNW,346,0.0,2.0,56,0.00,,,0.00,VWS V14.01,2013-02-22 07:14:00,
2013-02-22 01:15:00,46.7,29.5,29.90,ESE,105,2.0,4.0,51,0.00,,,0.00,VWS V14.01,2013-02-22 07:15:00,
2013-02-22 01:19:00,44.5,29.8,29.89,NNW,346,0.0,1.0,56,0.00,,,0.00,VWS V14.01,2013-02-22 07:19:00,
2013-02-22 01:20:00,45.1,29.5,29.91,ENE,67,1.0,3.0,54,0.00,,,0.00,VWS V14.01,2013-02-22 07:20:00,
2013-02-22 01:24:00,43.8,29.6,29.89,NNW,345,0.0,0.0,57,0.00,,,0.00,VWS V14.01,2013-02-22 07:24:00,
2013-02-22 01:25:00,46.0,30.3,29.90,NNE,33,6.0,10.0,54,0.00,,,0.00,VWS V14.01,2013-02-22 07:25:00,
2013-02-22 01:29:00,43.8,30.0,29.89,NNW,345,0.0,1.0,58,0.00,,,0.00,VWS V14.01,2013-02-22 07:29:00,
2013-02-22 01:30:00,49.5,31.1,29.91,NE,41,6.0,11.0,49,0.00,,,0.00,VWS V14.01,2013-02-22 07:30:00,
2013-02-22 01:34:00,43.7,30.3,29.89,NNW,345,0.0,0.0,59,0.00,,,0.00,VWS V14.01,2013-02-22 07:34:00,
2013-02-22 01:35:00,50.3,32.4,29.91,ESE,107,4.0,9.0,50,0.00,,,0.00,VWS V14.01,2013-02-22 07:35:00,
2013-02-22 01:39:00,43.1,29.8,29.89,NNW,345,0.0,1.0,59,0.00,,,0.00,VWS V14.01,2013-02-22 07:39:00,
2013-02-22 01:40:00,50.0,32.6,29.91,NE,49,1.0,4.0,51,0.00,,,0.00,VWS V14.01,2013-02-22 07:40:00,
2013-02-22 01:44:00,42.2,29.3,29.90,NW,325,1.0,3.0,60,0.00,,,0.00,VWS V14.01,2013-02-22 07:44:00,
2013-02-22 01:45:00,49.6,33.2,29.91,ENE,73,3.0,5.0,53,0.00,,,0.00,VWS V14.01,2013-02-22 07:45:00,
2013-02-22 01:49:00,43.2,30.3,29.89,NNW,331,1.0,5.0,60,0.00,,,0.00,VWS V14.01,2013-02-22 07:49:00,
2013-02-22 01:50:00,49.1,33.7,29.91,ENE,60,2.0,4.0,55,0.00,,,0.00,VWS V14.01,2013-02-22 07:50:00,
2013-02-22 01:54:00,44.3,30.0,29.89,NNW,343,7.0,9.0,57,0.00,,,0.00,VWS V14.01,2013-02-22 07:54:00,
2013-02-22 01:55:00,49.0,34.0,29.91,NNE,30,2.0,5.0,56,0.00,,,0.00,VWS V14.01,2013-02-22 07:55:00,
2013-02-22 01:59:00,47.2,30.0,29.90,NNW,327,1.0,11.0,51,0.00,,,0.00,VWS V14.01,2013-02-22 07:59:00,
2013-02-22 02:00:00,48.7,34.6,29.91,NNE,20,2.0,4.0,58,0.00,,,0.00,VWS V14.01,2013-02-22 08:00:00,
2013-02-22 02:04:00,48.3,29.5,29.90,NNW,347,4.0,7.0,48,0.00,,,0.00,VWS V14.01,2013-02-22 08:04:00,
2013-02-22 02:05:00,48.5,35.3,29.92,ENE,61,2.0,4.0,60,0.00,,,0.00,VWS V14.01,2013-02-22 08:05:00,
2013-02-22 02:09:00,48.6,30.8,29.90,North,350,0.0,5.0,50,0.00,,,0.00,VWS V14.01,2013-02-22 08:09:00,
2013-02-22 02:10:00,48.4,35.2,29.92,NE,37,2.0,5.0,60,0.00,,,0.00,VWS V14.01,2013-02-22 08:10:00,
2013-02-22 02:14:00,47.1,29.9,29.90,ESE,106,2.0,4.0,51,0.00,,,0.00,VWS V14.01,2013-02-22 08:14:00,
2013-02-22 02:15:00,48.2,35.4,29.92,NE,36,0.0,4.0,61,0.00,,,0.00,VWS V14.01,2013-02-22 08:15:00,
2013-02-22 02:19:00,45.2,29.6,29.91,ENE,70,0.0,3.0,54,0.00,,,0.00,VWS V14.01,2013-02-22 08:19:00,
2013-02-22 02:20:00,47.9,35.5,29.91,NNE,29,3.0,7.0,62,0.00,,,0.00,VWS V14.01,2013-02-22 08:20:00,
2013-02-22 02:24:00,45.3,30.1,29.90,NNE,18,7.0,10.0,55,0.00,,,0.00,VWS V14.01,2013-02-22 08:24:00,
2013-02-22 02:25:00,47.9,36.3,29.92,North,1,6.0,9.0,64,0.00,,,0.00,VWS V14.01,2013-02-22 08:25:00,
2013-02-22 02:29:00,49.3,31.0,29.91,ENE,75,4.0,11.0,49,0.00,,,0.00,VWS V14.01,2013-02-22 08:29:00,
2013-02-22 02:30:00,47.7,36.5,29.92,NNE,21,3.0,9.0,65,0.00,,,0.00,VWS V14.01,2013-02-22 08:30:00,
2013-02-22 02:34:00,50.3,32.4,29.91,ESE,113,3.0,9.0,50,0.00,,,0.00,VWS V14.01,2013-02-22 08:34:00,
2013-02-22 02:35:00,47.5,37.1,29.91,North,2,5.0,10.0,67,0.00,,,0.00,VWS V14.01,2013-02-22 08:35:00,
2013-02-22 02:39:00,50.0,32.6,29.91,NE,49,2.0,4.0,51,0.00,,,0.00,VWS V14.01,2013-02-22 08:39:00,
2013-02-22 02:40:00,47.3,37.7,29.92,North,2,7.0,11.0,69,0.00,,,0.00,VWS V14.01,2013-02-22 08:40:00,
2013-02-22 02:44:00,49.7,32.8,29.91,East,81,2.0,5.0,52,0.00,,,0.00,VWS V14.01,2013-02-22 08:44:00,
2013-02-22 02:45:00,47.1,37.5,29.92,NNW,338,2.0,8.0,69,0.00,,,0.00,VWS V14.01,2013-02-22 08:45:00,
2013-02-22 02:49:00,49.1,33.2,29.91,East,80,3.0,4.0,54,0.00,,,0.00,VWS V14.01,2013-02-22 08:49:00,
2013-02-22 02:50:00,46.7,37.1,29.92,North,357,3.0,7.0,69,0.00,,,0.00,VWS V14.01,2013-02-22 08:50:00,
2013-02-22 02:54:00,49.1,34.1,29.91,NNE,21,2.0,5.0,56,0.00,,,0.00,VWS V14.01,2013-02-22 08:54:00,
2013-02-22 02:55:00,46.4,36.8,29.92,North,4,5.0,8.0,69,0.00,,,0.00,VWS V14.01,2013-02-22 08:55:00,
2013-02-22 02:59:00,48.8,34.7,29.91,NE,40,1.0,4.0,58,0.00,,,0.00,VWS V14.01,2013-02-22 08:59:00,
2013-02-22 03:00:00,46.1,36.5,29.92,North,355,8.0,8.0,69,0.00,,,0.00,VWS V14.01,2013-02-22 09:00:00,
2013-02-22 03:04:00,48.5,35.3,29.92,NE,42,4.0,4.0,60,0.00,,,0.00,VWS V14.01,2013-02-22 09:04:00,
2013-02-22 03:05:00,45.9,36.3,29.92,NW,320,3.0,8.0,69,0.00,,,0.00,VWS V14.01,2013-02-22 09:05:00,
2013-02-22 03:09:00,48.4,35.2,29.92,NE,40,2.0,5.0,60,0.00,,,0.00,VWS V14.01,2013-02-22 09:09:00,
2013-02-22 03:10:00,45.8,36.2,29.92,NW,315,3.0,5.0,69,0.00,,,0.00,VWS V14.01,2013-02-22 09:10:00,
2013-02-22 03:14:00,48.3,35.5,29.92,NE,37,2.0,4.0,61,0.00,,,0.00,VWS V14.01,2013-02-22 09:14:00,
2013-02-22 03:15:00,45.6,36.4,29.93,NNW,332,4.0,6.0,70,0.00,,,0.00,VWS V14.01,2013-02-22 09:15:00,
2013-02-22 03:19:00,47.9,35.5,29.91,NNE,28,3.0,7.0,62,0.00,,,0.00,VWS V14.01,2013-02-22 09:19:00,
2013-02-22 03:20:00,45.4,36.6,29.93,NNW,336,4.0,7.0,71,0.00,,,0.00,VWS V14.01,2013-02-22 09:20:00,
2013-02-22 03:24:00,47.8,36.2,29.92,NNE,18,7.0,8.0,64,0.00,,,0.00,VWS V14.01,2013-02-22 09:24:00,
2013-02-22 03:25:00,45.3,36.5,29.93,NNW,341,7.0,8.0,71,0.00,,,0.00,VWS V14.01,2013-02-22 09:25:00,
2013-02-22 03:29:00,47.7,36.5,29.92,NE,39,2.0,9.0,65,0.00,,,0.00,VWS V14.01,2013-02-22 09:29:00,
2013-02-22 03:30:00,45.2,36.7,29.94,North,2,5.0,11.0,72,0.00,,,0.00,VWS V14.01,2013-02-22 09:30:00,
2013-02-22 03:34:00,47.6,37.2,29.91,North,351,6.0,10.0,67,0.00,,,0.00,VWS V14.01,2013-02-22 09:34:00,
2013-02-22 03:35:00,45.1,37.3,29.94,North,1,8.0,12.0,74,0.00,,,0.00,VWS V14.01,2013-02-22 09:35:00,
2013-02-22 03:39:00,47.3,37.7,29.92,NNE,14,5.0,11.0,69,0.00,,,0.00,VWS V14.01,2013-02-22 09:39:00,
2013-02-22 03:40:00,45.1,37.7,29.95,NNE,23,5.0,12.0,75,0.00,,,0.00,VWS V14.01,2013-02-22 09:40:00,
2013-02-22 03:44:00,47.1,37.5,29.92,North,352,5.0,8.0,69,0.00,,,0.00,VWS V14.01,2013-02-22 09:44:00,
2013-02-22 03:45:00,44.9,37.5,29.95,NNW,330,1.0,7.0,75,0.00,,,0.00,VWS V14.01,2013-02-22 09:45:00,
2013-02-22 03:49:00,46.9,36.9,29.92,North,349,4.0,7.0,68,0.00,,,0.00,VWS V14.01,2013-02-22 09:49:00,
2013-02-22 03:50:00,44.7,37.6,29.96,NNE,22,0.0,6.0,76,0.00,,,0.00,VWS V14.01,2013-02-22 09:50:00,
2013-02-22 03:54:00,46.4,36.8,29.92,NNW,341,2.0,5.0,69,0.00,,,0.00,VWS V14.01,2013-02-22 09:54:00,
2013-02-22 03:55:00,44.5,37.8,29.97,NNW,336,3.0,3.0,77,0.00,,,0.00,VWS V14.01,2013-02-22 09:55:00,
2013-02-22 03:59:00,46.1,36.5,29.92,NNW,343,2.0,7.0,69,0.00,,,0.00,VWS V14.01,2013-02-22 09:59:00,
2013-02-22 04:00:00,44.5,38.1,29.98,NNE,12,2.0,4.0,78,0.00,,,0.00,VWS V14.01,2013-02-22 10:00:00,
2013-02-22 04:04:00,46.0,36.4,29.92,NNW,333,3.0,8.0,69,0.00,,,0.00,VWS V14.01,2013-02-22 10:04:00,
2013-02-22 04:05:00,44.5,38.1,29.98,North,351,2.0,6.0,78,0.00,,,0.00,VWS V14.01,2013-02-22 10:05:00,
2013-02-22 04:09:00,45.8,36.2,29.92,NW,326,0.0,5.0,69,0.00,,,0.00,VWS V14.01,2013-02-22 10:09:00,
2013-02-22 04:10:00,44.4,38.3,29.98,North,351,8.0,8.0,79,0.00,,,0.00,VWS V14.01,2013-02-22 10:10:00,
2013-02-22 04:14:00,45.6,36.0,29.93,NNW,331,3.0,6.0,69,0.00,,,0.00,VWS V14.01,2013-02-22 10:14:00,
2013-02-22 04:15:00,44.4,38.6,29.98,NNW,336,7.0,14.0,80,0.00,,,0.00,VWS V14.01,2013-02-22 10:15:00,
2013-02-22 04:19:00,45.5,36.3,29.93,North,4,4.0,7.0,70,0.00,,,0.00,VWS V14.01,2013-02-22 10:19:00,
2013-02-22 04:20:00,44.3,38.5,29.98,North,355,4.0,9.0,80,0.00,,,0.00,VWS V14.01,2013-02-22 10:20:00,
2013-02-22 04:24:00,45.3,36.5,29.93,NNW,334,7.0,8.0,71,0.00,,,0.00,VWS V14.01,2013-02-22 10:24:00,
2013-02-22 04:25:00,44.1,38.3,29.99,North,351,2.0,11.0,80,0.00,,,0.00,VWS V14.01,2013-02-22 10:25:00,
2013-02-22 04:29:00,45.3,36.8,29.94,NNW,342,6.0,10.0,72,0.00,,,0.00,VWS V14.01,2013-02-22 10:29:00,
2013-02-22 04:30:00,44.0,38.2,29.99,North,356,2.0,10.0,80,0.00,,,0.00,VWS V14.01,2013-02-22 10:30:00,
2013-02-22 04:34:00,45.1,37.0,29.94,NNE,12,11.0,12.0,73,0.00,,,0.00,VWS V14.01,2013-02-22 10:34:00,
2013-02-22 04:35:00,43.8,38.0,30.00,NNW,344,4.0,7.0,80,0.00,,,0.00,VWS V14.01,2013-02-22 10:35:00,
2013-02-22 04:39:00,45.1,37.3,29.95,NNW,342,7.0,12.0,74,0.00,,,0.00,VWS V14.01,2013-02-22 10:39:00,
2013-02-22 04:40:00,43.7,37.9,30.00,NNW,333,4.0,8.0,80,0.00,,,0.00,VWS V14.01,2013-02-22 10:40:00,
2013-02-22 04:44:00,44.9,37.5,29.95,North,358,0.0,7.0,75,0.00,,,0.00,VWS V14.01,2013-02-22 10:44:00,
2013-02-22 04:45:00,43.6,37.8,30.00,North,360,4.0,6.0,80,0.00,,,0.00,VWS V14.01,2013-02-22 10:45:00,
2013-02-22 04:49:00,44.7,37.6,29.96,NNE,14,0.0,6.0,76,0.00,,,0.00,VWS V14.01,2013-02-22 10:49:00,
2013-02-22 04:50:00,43.5,37.8,30.01,NW,319,0.0,4.0,80,0.00,,,0.00,VWS V14.01,2013-02-22 10:50:00,
2013-02-22 04:54:00,44.5,37.8,29.97,North,351,3.0,3.0,77,0.00,,,0.00,VWS V14.01,2013-02-22 10:54:00,
2013-02-22 04:55:00,43.3,37.6,30.01,North,353,3.0,8.0,80,0.00,,,0.00,VWS V14.01,2013-02-22 10:55:00,
2013-02-22 04:59:00,44.5,38.1,29.98,NNW,346,0.0,4.0,78,0.00,,,0.00,VWS V14.01,2013-02-22 10:59:00,
2013-02-22 05:00:00,43.2,37.5,30.01,NNW,341,9.0,9.0,80,0.00,,,0.00,VWS V14.01,2013-02-22 11:00:00,
2013-02-22 05:04:00,44.5,38.4,29.98,NNE,17,4.0,6.0,79,0.00,,,0.00,VWS V14.01,2013-02-22 11:04:00,
2013-02-22 05:05:00,43.2,37.5,30.01,North,11,5.0,10.0,80,0.00,,,0.00,VWS V14.01,2013-02-22 11:05:00,
2013-02-22 05:09:00,44.4,38.3,29.98,North,350,5.0,8.0,79,0.00,,,0.00,VWS V14.01,2013-02-22 11:09:00,
2013-02-22 05:10:00,43.1,37.4,30.01,NNW,340,4.0,9.0,80,0.00,,,0.00,VWS V14.01,2013-02-22 11:10:00,
2013-02-22 05:14:00,44.4,38.6,29.98,North,360,11.0,14.0,80,0.00,,,0.00,VWS V14.01,2013-02-22 11:14:00,
2013-02-22 05:15:00,42.9,36.8,30.02,North,354,15.0,15.0,79,0.00,,,0.00,VWS V14.01,2013-02-22 11:15:00,
2013-02-22 05:19:00,44.3,38.5,29.98,NNW,343,5.0,9.0,80,0.00,,,0.00,VWS V14.01,2013-02-22 11:19:00,
2013-02-22 05:20:00,42.6,36.2,30.02,North,9,9.0,16.0,78,0.00,,,0.00,VWS V14.01,2013-02-22 11:20:00,
2013-02-22 05:24:00,44.2,38.4,29.99,North,354,5.0,11.0,80,0.00,,,0.00,VWS V14.01,2013-02-22 11:24:00,
2013-02-22 05:25:00,42.3,36.3,30.02,NNW,345,6.0,12.0,79,0.00,,,0.00,VWS V14.01,2013-02-22 11:25:00,
2013-02-22 05:29:00,44.1,38.3,29.99,NNW,346,4.0,10.0,80,0.00,,,0.00,VWS V14.01,2013-02-22 11:29:00,
2013-02-22 05:30:00,42.2,36.2,30.02,North,356,5.0,9.0,79,0.00,,,0.00,VWS V14.01,2013-02-22 11:30:00,
2013-02-22 05:34:00,43.9,38.1,29.99,NNW,334,3.0,7.0,80,0.00,,,0.00,VWS V14.01,2013-02-22 11:34:00,
2013-02-22 05:35:00,42.0,36.0,30.02,North,354,4.0,8.0,79,0.00,,,0.00,VWS V14.01,2013-02-22 11:35:00,
2013-02-22 05:39:00,43.7,38.0,30.00,NNW,332,4.0,8.0,80,0.00,,,0.00,VWS V14.01,2013-02-22 11:39:00,
2013-02-22 05:40:00,41.9,35.9,30.03,NNE,15,5.0,6.0,79,0.00,,,0.00,VWS V14.01,2013-02-22 11:40:00,
2013-02-22 05:44:00,43.6,37.8,30.00,NNW,348,1.0,6.0,80,0.00,,,0.00,VWS V14.01,2013-02-22 11:44:00,
2013-02-22 05:45:00,41.7,35.0,30.03,NNE,14,8.0,15.0,77,0.00,,,0.00,VWS V14.01,2013-02-22 11:45:00,
2013-02-22 05:49:00,43.5,37.8,30.01,North,9,1.0,4.0,80,0.00,,,0.00,VWS V14.01,2013-02-22 11:49:00,
2013-02-22 05:50:00,41.5,34.8,30.03,North,2,5.0,12.0,77,0.00,,,0.00,VWS V14.01,2013-02-22 11:50:00,
2013-02-22 05:54:00,43.4,37.7,30.01,NNW,341,7.0,8.0,80,0.00,,,0.00,VWS V14.01,2013-02-22 11:54:00,
2013-02-22 05:55:00,41.4,34.7,30.04,North,357,6.0,9.0,77,0.00,,,0.00,VWS V14.01,2013-02-22 11:55:00,
2013-02-22 05:59:00,43.2,37.5,30.01,North,357,3.0,7.0,80,0.00,,,0.00,VWS V14.01,2013-02-22 11:59:00,
2013-02-22 06:00:00,41.2,34.5,30.04,NNW,334,3.0,10.0,77,0.00,,,0.00,VWS V14.01,2013-02-22 12:00:00,
2013-02-22 06:04:00,43.2,37.5,30.01,North,2,7.0,10.0,80,0.00,,,0.00,VWS V14.01,2013-02-22 12:04:00,
2013-02-22 06:05:00,41.1,34.5,30.04,North,355,8.0,11.0,77,0.00,,,0.00,VWS V14.01,2013-02-22 12:05:00,
2013-02-22 06:09:00,43.1,37.4,30.01,NNW,348,6.0,9.0,80,0.00,,,0.00,VWS V14.01,2013-02-22 12:09:00,
2013-02-22 06:10:00,41.0,34.7,30.04,NNW,348,6.0,11.0,78,0.00,,,0.00,VWS V14.01,2013-02-22 12:10:00,
2013-02-22 06:14:00,42.9,36.8,30.02,North,357,9.0,12.0,79,0.00,,,0.00,VWS V14.01,2013-02-22 12:14:00,
2013-02-22 06:15:00,40.9,34.6,30.04,North,2,8.0,11.0,78,0.00,,,0.00,VWS V14.01,2013-02-22 12:15:00,
2013-02-22 06:19:00,42.7,36.7,30.02,North,350,9.0,16.0,79,0.00,,,0.00,VWS V14.01,2013-02-22 12:19:00,
2013-02-22 06:20:00,40.8,34.5,30.04,North,5,5.0,9.0,78,0.00,,,0.00,VWS V14.01,2013-02-22 12:20:00,
2013-02-22 06:23:00,42.4,36.4,30.02,North,8,4.0,12.0,79,0.00,,,0.00,VWS V14.01,2013-02-22 12:23:00,
2013-02-22 06:25:00,40.7,34.7,30.04,North,355,4.0,6.0,79,0.00,,,0.00,VWS V14.01,2013-02-22 12:25:00,
2013-02-22 06:28:00,42.2,36.2,30.02,North,351,3.0,9.0,79,0.00,,,0.00,VWS V14.01,2013-02-22 12:28:00,
2013-02-22 06:30:00,40.6,34.6,30.04,North,4,7.0,13.0,79,0.00,,,0.00,VWS V14.01,2013-02-22 12:30:00,
2013-02-22 06:33:00,42.0,36.0,30.02,North,1,6.0,8.0,79,0.00,,,0.00,VWS V14.01,2013-02-22 12:33:00,
2013-02-22 06:35:00,40.5,34.5,30.04,NNW,345,9.0,14.0,79,0.00,,,0.00,VWS V14.01,2013-02-22 12:35:00,
2013-02-22 06:38:00,41.9,35.9,30.02,North,353,2.0,6.0,79,0.00,,,0.00,VWS V14.01,2013-02-22 12:38:00,
2013-02-22 06:40:00,40.3,34.3,30.05,North,354,8.0,12.0,79,0.00,,,0.00,VWS V14.01,2013-02-22 12:40:00,
2013-02-22 06:43:00,41.7,35.4,30.03,North,8,8.0,15.0,78,0.00,,,0.00,VWS V14.01,2013-02-22 12:43:00,
2013-02-22 06:45:00,40.3,34.3,30.05,North,349,6.0,11.0,79,0.00,,,0.00,VWS V14.01,2013-02-22 12:45:00,
2013-02-22 06:48:00,41.5,34.8,30.03,North,358,11.0,12.0,77,0.00,,,0.00,VWS V14.01,2013-02-22 12:48:00,
2013-02-22 06:50:00,40.3,34.3,30.05,NNW,338,7.0,12.0,79,0.00,,,0.00,VWS V14.01,2013-02-22 12:50:00,
2013-02-22 06:53:00,41.4,34.7,30.04,North,350,5.0,6.0,77,0.00,,,0.00,VWS V14.01,2013-02-22 12:53:00,
2013-02-22 06:55:00,40.3,34.3,30.05,NNW,348,8.0,10.0,79,0.00,,,0.00,VWS V14.01,2013-02-22 12:55:00,
2013-02-22 06:58:00,41.3,34.7,30.04,NNW,346,7.0,10.0,77,0.00,,,0.00,VWS V14.01,2013-02-22 12:58:00,
2013-02-22 07:00:00,40.2,33.9,30.06,North,357,7.0,14.0,78,0.00,,,0.00,VWS V14.01,2013-02-22 13:00:00,
2013-02-22 07:03:00,41.1,34.5,30.04,North,4,8.0,11.0,77,0.00,,,0.00,VWS V14.01,2013-02-22 13:03:00,
2013-02-22 07:05:00,40.1,33.5,30.06,NNW,329,11.0,12.0,77,0.00,,,0.00,VWS V14.01,2013-02-22 13:05:00,
2013-02-22 07:08:00,41.0,34.7,30.04,North,4,8.0,9.0,78,0.00,,,0.00,VWS V14.01,2013-02-22 13:08:00,
2013-02-22 07:10:00,40.0,33.1,30.06,North,4,9.0,11.0,76,0.00,,,0.00,VWS V14.01,2013-02-22 13:10:00,
2013-02-22 07:13:00,40.9,34.6,30.04,North,11,5.0,8.0,78,0.00,,,0.00,VWS V14.01,2013-02-22 13:13:00,
2013-02-22 07:15:00,39.8,32.2,30.06,NNW,348,11.0,13.0,74,0.00,,,0.00,VWS V14.01,2013-02-22 13:15:00,
2013-02-22 07:18:00,40.8,34.5,30.04,North,350,3.0,9.0,78,0.00,,,0.00,VWS V14.01,2013-02-22 13:18:00,
2013-02-22 07:20:00,39.6,32.0,30.06,North,5,6.0,11.0,74,0.00,,,0.00,VWS V14.01,2013-02-22 13:20:00,
2013-02-22 07:23:00,40.7,34.7,30.04,NNW,345,3.0,6.0,79,0.00,,,0.00,VWS V14.01,2013-02-22 13:23:00,
2013-02-22 07:25:00,39.5,31.6,30.07,NNW,336,12.0,16.0,73,0.00,,,0.00,VWS V14.01,2013-02-22 13:25:00,
2013-02-22 07:28:00,40.6,34.6,30.04,North,357,7.0,13.0,79,0.00,,,0.00,VWS V14.01,2013-02-22 13:28:00,
2013-02-22 07:30:00,39.3,31.4,30.07,North,354,10.0,15.0,73,0.00,,,0.00,VWS V14.01,2013-02-22 13:30:00,
2013-02-22 07:33:00,40.5,34.5,30.04,North,353,10.0,10.0,79,0.00,,,0.00,VWS V14.01,2013-02-22 13:33:00,
2013-02-22 07:35:00,39.4,31.8,30.07,NNE,14,7.0,11.0,74,0.00,,,0.00,VWS V14.01,2013-02-22 13:35:00,
2013-02-22 07:38:00,40.4,34.4,30.04,North,4,8.0,12.0,79,0.00,,,0.00,VWS V14.01,2013-02-22 13:38:00,
2013-02-22 07:40:00,39.4,31.5,30.07,North,357,5.0,9.0,73,0.00,,,0.00,VWS V14.01,2013-02-22 13:40:00,
2013-02-22 07:43:00,40.3,34.3,30.05,North,355,7.0,11.0,79,0.00,,,0.00,VWS V14.01,2013-02-22 13:43:00,
2013-02-22 07:45:00,39.5,32.2,30.07,NNW,336,5.0,9.0,75,0.00,,,0.00,VWS V14.01,2013-02-22 13:45:00,
2013-02-22 07:48:00,40.3,34.3,30.05,NW,317,6.0,12.0,79,0.00,,,0.00,VWS V14.01,2013-02-22 13:48:00,
2013-02-22 07:50:00,39.6,32.3,30.07,NNW,329,5.0,6.0,75,0.00,,,0.00,VWS V14.01,2013-02-22 13:50:00,
2013-02-22 07:53:00,40.3,34.3,30.05,North,358,4.0,10.0,79,0.00,,,0.00,VWS V14.01,2013-02-22 13:53:00,
2013-02-22 07:55:00,39.5,31.9,30.07,NW,322,9.0,11.0,74,0.00,,,0.00,VWS V14.01,2013-02-22 13:55:00,
2013-02-22 07:58:00,40.2,33.9,30.06,North,355,8.0,14.0,78,0.00,,,0.00,VWS V14.01,2013-02-22 13:58:00,
2013-02-22 08:00:00,39.6,31.7,30.07,North,3,3.0,10.0,73,0.00,,,0.00,VWS V14.01,2013-02-22 14:00:00,
2013-02-22 08:03:00,40.1,33.5,30.06,NNW,348,6.0,11.0,77,0.00,,,0.00,VWS V14.01,2013-02-22 14:03:00,
2013-02-22 08:05:00,39.3,29.3,30.08,NNW,341,14.0,19.0,67,0.00,,,0.00,VWS V14.01,2013-02-22 14:05:00,
2013-02-22 08:08:00,40.0,33.1,30.06,North,353,6.0,11.0,76,0.00,,,0.00,VWS V14.01,2013-02-22 14:08:00,
2013-02-22 08:10:00,38.9,28.9,30.08,North,357,9.0,15.0,67,0.00,,,0.00,VWS V14.01,2013-02-22 14:10:00,
2013-02-22 08:13:00,39.9,32.6,30.06,North,2,8.0,13.0,75,0.00,,,0.00,VWS V14.01,2013-02-22 14:13:00,
2013-02-22 08:15:00,38.9,28.9,30.08,North,4,12.0,16.0,67,0.00,,,0.00,VWS V14.01,2013-02-22 14:15:00,
2013-02-22 08:18:00,39.7,32.4,30.06,NNW,338,8.0,11.0,75,0.00,,,0.00,VWS V14.01,2013-02-22 14:18:00,
2013-02-22 08:20:00,39.2,29.2,30.07,NNE,12,9.0,17.0,67,0.00,,,0.00,VWS V14.01,2013-02-22 14:20:00,
2013-02-22 08:23:00,39.6,32.0,30.07,North,358,13.0,14.0,74,0.00,,,0.00,VWS V14.01,2013-02-22 14:23:00,
2013-02-22 08:25:00,39.5,29.8,30.08,North,352,14.0,16.0,68,0.00,,,0.00,VWS V14.01,2013-02-22 14:25:00,
2013-02-22 08:28:00,39.4,31.5,30.07,North,357,12.0,15.0,73,0.00,,,0.00,VWS V14.01,2013-02-22 14:28:00,
2013-02-22 08:30:00,39.6,29.6,30.08,NNW,333,10.0,13.0,67,0.00,,,0.00,VWS V14.01,2013-02-22 14:30:00,
2013-02-22 08:33:00,39.3,31.4,30.07,North,360,9.0,11.0,73,0.00,,,0.00,VWS V14.01,2013-02-22 14:33:00,
2013-02-22 08:35:00,39.6,29.6,30.07,North,4,10.0,14.0,67,0.00,,,0.00,VWS V14.01,2013-02-22 14:35:00,
2013-02-22 08:38:00,39.4,31.5,30.07,North,9,6.0,9.0,73,0.00,,,0.00,VWS V14.01,2013-02-22 14:38:00,
2013-02-22 08:40:00,39.9,29.9,30.08,North,358,7.0,13.0,67,0.00,,,0.00,VWS V14.01,2013-02-22 14:40:00,
2013-02-22 08:43:00,39.5,31.9,30.07,North,9,3.0,9.0,74,0.00,,,0.00,VWS V14.01,2013-02-22 14:43:00,
2013-02-22 08:45:00,40.0,29.6,30.08,North,360,5.0,10.0,66,0.00,,,0.00,VWS V14.01,2013-02-22 14:45:00,
2013-02-22 08:48:00,39.6,32.0,30.07,North,351,2.0,6.0,74,0.00,,,0.00,VWS V14.01,2013-02-22 14:48:00,
2013-02-22 08:50:00,40.2,29.4,30.07,NNW,331,7.0,12.0,65,0.00,,,0.00,VWS V14.01,2013-02-22 14:50:00,
2013-02-22 08:53:00,39.6,32.0,30.07,NNW,330,7.0,10.0,74,0.00,,,0.00,VWS V14.01,2013-02-22 14:53:00,
2013-02-22 08:55:00,40.2,29.0,30.07,North,358,9.0,13.0,64,0.00,,,0.00,VWS V14.01,2013-02-22 14:55:00,
2013-02-22 08:58:00,39.6,32.0,30.07,NNE,15,6.0,10.0,74,0.00,,,0.00,VWS V14.01,2013-02-22 14:58:00,
2013-02-22 09:00:00,40.0,28.8,30.07,North,2,8.0,13.0,64,0.00,,,0.00,VWS V14.01,2013-02-22 15:00:00,
2013-02-22 09:03:00,39.6,30.6,30.07,North,360,11.0,16.0,70,0.00,,,0.00,VWS V14.01,2013-02-22 15:03:00,
2013-02-22 09:05:00,40.0,28.8,30.07,North,357,4.0,11.0,64,0.00,,,0.00,VWS V14.01,2013-02-22 15:05:00,
2013-02-22 09:08:00,39.0,28.6,30.08,North,358,11.0,15.0,66,0.00,,,0.00,VWS V14.01,2013-02-22 15:08:00,
2013-02-22 09:10:00,40.3,28.3,30.07,NNW,346,8.0,11.0,62,0.00,,,0.00,VWS V14.01,2013-02-22 15:10:00,
2013-02-22 09:13:00,38.9,28.5,30.08,North,9,9.0,16.0,66,0.00,,,0.00,VWS V14.01,2013-02-22 15:13:00,
2013-02-22 09:15:00,40.5,28.5,30.07,NW,320,8.0,13.0,62,0.00,,,0.00,VWS V14.01,2013-02-22 15:15:00,
2013-02-22 09:18:00,39.1,28.7,30.08,NNW,344,11.0,17.0,66,0.00,,,0.00,VWS V14.01,2013-02-22 15:18:00,
2013-02-22 09:20:00,40.9,28.9,30.07,North,357,7.0,9.0,62,0.00,,,0.00,VWS V14.01,2013-02-22 15:20:00,
2013-02-22 09:23:00,39.3,28.9,30.08,North,355,7.0,12.0,66,0.00,,,0.00,VWS V14.01,2013-02-22 15:23:00,
2013-02-22 09:25:00,40.8,28.0,30.07,North,355,11.0,12.0,60,0.00,,,0.00,VWS V14.01,2013-02-22 15:25:00,
2013-02-22 09:28:00,39.5,29.8,30.08,NNW,348,9.0,13.0,68,0.00,,,0.00,VWS V14.01,2013-02-22 15:28:00,
2013-02-22 09:30:00,40.9,28.1,30.07,North,358,7.0,13.0,60,0.00,,,0.00,VWS V14.01,2013-02-22 15:30:00,
2013-02-22 09:33:00,39.6,29.6,30.08,NNW,345,12.0,14.0,67,0.00,,,0.00,VWS V14.01,2013-02-22 15:33:00,
2013-02-22 09:35:00,41.1,27.9,30.07,North,8,10.0,13.0,59,0.00,,,0.00,VWS V14.01,2013-02-22 15:35:00,
2013-02-22 09:38:00,39.7,29.7,30.08,NNW,332,8.0,10.0,67,0.00,,,0.00,VWS V14.01,2013-02-22 15:38:00,
2013-02-22 09:40:00,41.0,27.4,30.07,North,354,9.0,15.0,58,0.00,,,0.00,VWS V14.01,2013-02-22 15:40:00,
2013-02-22 09:43:00,40.0,29.6,30.07,North,4,5.0,10.0,66,0.00,,,0.00,VWS V14.01,2013-02-22 15:43:00,
2013-02-22 09:45:00,41.7,28.4,30.07,NNW,345,8.0,15.0,59,0.00,,,0.00,VWS V14.01,2013-02-22 15:45:00,
2013-02-22 09:48:00,40.1,29.3,30.07,NNE,16,7.0,10.0,65,0.00,,,0.00,VWS V14.01,2013-02-22 15:48:00,
2013-02-22 09:50:00,42.7,29.0,30.06,NE,42,5.0,12.0,58,0.00,,,0.00,VWS V14.01,2013-02-22 15:50:00,
2013-02-22 09:53:00,40.3,29.9,30.07,NNE,26,6.0,8.0,66,0.00,,,0.00,VWS V14.01,2013-02-22 15:53:00,
2013-02-22 09:55:00,43.0,28.8,30.06,NNW,336,4.0,11.0,57,0.00,,,0.00,VWS V14.01,2013-02-22 15:55:00,
2013-02-22 09:58:00,40.0,28.8,30.07,North,350,10.0,13.0,64,0.00,,,0.00,VWS V14.01,2013-02-22 15:58:00,
2013-02-22 10:00:00,43.5,28.9,30.06,North,1,9.0,11.0,56,0.00,,,0.00,VWS V14.01,2013-02-22 16:00:00,
2013-02-22 10:03:00,40.0,28.8,30.07,NNW,333,9.0,9.0,64,0.00,,,0.00,VWS V14.01,2013-02-22 16:03:00,
2013-02-22 10:05:00,43.4,27.9,30.06,North,349,7.0,12.0,54,0.00,,,0.00,VWS V14.01,2013-02-22 16:05:00,
2013-02-22 10:08:00,40.4,28.8,30.07,NNW,333,10.0,11.0,63,0.00,,,0.00,VWS V14.01,2013-02-22 16:08:00,
2013-02-22 10:10:00,43.4,27.9,30.07,NNW,348,4.0,11.0,54,0.00,,,0.00,VWS V14.01,2013-02-22 16:10:00,
2013-02-22 10:13:00,40.4,28.0,30.08,NNW,338,10.0,13.0,61,0.00,,,0.00,VWS V14.01,2013-02-22 16:13:00,
2013-02-22 10:15:00,43.9,28.8,30.07,North,8,8.0,12.0,55,0.00,,,0.00,VWS V14.01,2013-02-22 16:15:00,
2013-02-22 10:18:00,40.7,28.7,30.07,North,351,3.0,9.0,62,0.00,,,0.00,VWS V14.01,2013-02-22 16:18:00,
2013-02-22 10:20:00,44.1,28.5,30.07,North,5,9.0,11.0,54,0.00,,,0.00,VWS V14.01,2013-02-22 16:20:00,
2013-02-22 10:23:00,40.8,28.0,30.07,NNW,334,6.0,10.0,60,0.00,,,0.00,VWS V14.01,2013-02-22 16:23:00,
2013-02-22 10:25:00,44.1,27.6,30.07,NNE,12,9.0,12.0,52,0.00,,,0.00,VWS V14.01,2013-02-22 16:25:00,
2013-02-22 10:28:00,40.8,28.0,30.07,NNW,337,6.0,13.0,60,0.00,,,0.00,VWS V14.01,2013-02-22 16:28:00,
2013-02-22 10:30:00,44.4,28.4,30.07,NNE,28,4.0,10.0,53,0.00,,,0.00,VWS V14.01,2013-02-22 16:30:00,
2013-02-22 10:33:00,41.1,27.9,30.07,NNE,15,8.0,11.0,59,0.00,,,0.00,VWS V14.01,2013-02-22 16:33:00,
2013-02-22 10:35:00,44.8,28.3,30.06,NE,46,5.0,9.0,52,0.00,,,0.00,VWS V14.01,2013-02-22 16:35:00,
2013-02-22 10:38:00,41.0,27.4,30.07,NNE,18,8.0,15.0,58,0.00,,,0.00,VWS V14.01,2013-02-22 16:38:00,
2013-02-22 10:40:00,45.6,29.5,30.07,NW,317,5.0,10.0,53,0.00,,,0.00,VWS V14.01,2013-02-22 16:40:00,
2013-02-22 10:43:00,41.2,28.0,30.07,North,349,8.0,15.0,59,0.00,,,0.00,VWS V14.01,2013-02-22 16:43:00,
2013-02-22 10:45:00,46.1,28.5,30.07,NNW,336,6.0,10.0,50,0.00,,,0.00,VWS V14.01,2013-02-22 16:45:00,
2013-02-22 10:48:00,42.2,28.1,30.07,NNE,18,4.0,12.0,57,0.00,,,0.00,VWS V14.01,2013-02-22 16:48:00,
2013-02-22 10:50:00,46.3,28.2,30.07,North,5,4.0,13.0,49,0.00,,,0.00,VWS V14.01,2013-02-22 16:50:00,
2013-02-22 10:53:00,42.9,28.3,30.07,North,360,7.0,11.0,56,0.00,,,0.00,VWS V14.01,2013-02-22 16:53:00,
2013-02-22 10:55:00,47.0,28.9,30.06,NW,322,2.0,4.0,49,0.00,,,0.00,VWS V14.01,2013-02-22 16:55:00,
2013-02-22 10:58:00,43.2,28.1,30.06,North,5,4.0,11.0,55,0.00,,,0.00,VWS V14.01,2013-02-22 16:58:00,
2013-02-22 11:00:00,47.5,28.8,30.06,ENE,61,5.0,11.0,48,0.00,,,0.00,VWS V14.01,2013-02-22 17:00:00,
2013-02-22 11:03:00,43.4,27.9,30.06,North,357,9.0,12.0,54,0.00,,,0.00,VWS V14.01,2013-02-22 17:03:00,
2013-02-22 11:05:00,48.0,29.3,30.06,North,356,7.0,14.0,48,0.00,,,0.00,VWS V14.01,2013-02-22 17:05:00,
2013-02-22 11:08:00,43.4,27.9,30.07,North,1,9.0,11.0,54,0.00,,,0.00,VWS V14.01,2013-02-22 17:08:00,
2013-02-22 11:10:00,47.8,29.1,30.06,NE,52,1.0,7.0,48,0.00,,,0.00,VWS V14.01,2013-02-22 17:10:00,
2013-02-22 11:13:00,43.8,28.2,30.07,North,351,6.0,8.0,54,0.00,,,0.00,VWS V14.01,2013-02-22 17:13:00,
2013-02-22 11:15:00,48.3,30.0,30.05,NNE,30,5.0,10.0,49,0.00,,,0.00,VWS V14.01,2013-02-22 17:15:00,
2013-02-22 11:18:00,43.9,27.9,30.07,North,350,6.0,11.0,53,0.00,,,0.00,VWS V14.01,2013-02-22 17:18:00,
2013-02-22 11:20:00,48.9,30.6,30.05,NNE,15,6.0,10.0,49,0.00,,,0.00,VWS V14.01,2013-02-22 17:20:00,
2013-02-22 11:23:00,44.2,27.7,30.07,NNE,18,7.0,12.0,52,0.00,,,0.00,VWS V14.01,2013-02-22 17:23:00,
2013-02-22 11:25:00,49.1,29.8,30.05,NNW,340,2.0,10.0,47,0.00,,,0.00,VWS V14.01,2013-02-22 17:25:00,
2013-02-22 11:28:00,44.1,27.6,30.07,NNE,25,3.0,10.0,52,0.00,,,0.00,VWS V14.01,2013-02-22 17:28:00,
2013-02-22 11:30:00,48.8,29.5,30.04,NE,37,5.0,9.0,47,0.00,,,0.00,VWS V14.01,2013-02-22 17:30:00,
2013-02-22 11:33:00,44.7,28.6,30.07,NE,46,5.0,9.0,53,0.00,,,0.00,VWS V14.01,2013-02-22 17:33:00,
2013-02-22 11:35:00,48.8,29.5,30.04,NNE,21,3.0,10.0,47,0.00,,,0.00,VWS V14.01,2013-02-22 17:35:00,
2013-02-22 11:38:00,45.1,29.0,30.06,NNE,32,4.0,5.0,53,0.00,,,0.00,VWS V14.01,2013-02-22 17:38:00,
2013-02-22 11:40:00,49.6,30.2,30.04,North,355,6.0,11.0,47,0.00,,,0.00,VWS V14.01,2013-02-22 17:40:00,
2013-02-22 11:43:00,46.0,28.9,30.07,North,350,7.0,9.0,51,0.00,,,0.00,VWS V14.01,2013-02-22 17:43:00,
2013-02-22 11:45:00,49.6,30.7,30.03,North,354,1.0,9.0,48,0.00,,,0.00,VWS V14.01,2013-02-22 17:45:00,
2013-02-22 11:48:00,46.1,28.5,30.07,North,352,8.0,13.0,50,0.00,,,0.00,VWS V14.01,2013-02-22 17:48:00,
2013-02-22 11:50:00,50.6,31.1,30.03,North,355,5.0,14.0,47,0.00,,,0.00,VWS V14.01,2013-02-22 17:50:00,
2013-02-22 11:53:00,46.5,28.9,30.07,NNW,339,0.0,4.0,50,0.00,,,0.00,VWS V14.01,2013-02-22 17:53:00,
2013-02-22 11:55:00,50.6,31.1,30.02,North,355,2.0,14.0,47,0.00,,,0.00,VWS V14.01,2013-02-22 17:55:00,
2013-02-22 11:58:00,47.4,29.2,30.06,NNE,16,4.0,11.0,49,0.00,,,0.00,VWS V14.01,2013-02-22 17:58:00,
2013-02-22 12:00:00,50.9,30.9,30.01,NNE,13,4.0,9.0,46,0.00,,,0.00,VWS V14.01,2013-02-22 18:00:00,
2013-02-22 12:03:00,47.9,29.2,30.06,NNE,18,5.0,14.0,48,0.00,,,0.00,VWS V14.01,2013-02-22 18:03:00,
2013-02-22 12:05:00,51.3,31.8,30.01,NNE,21,9.0,10.0,47,0.00,,,0.00,VWS V14.01,2013-02-22 18:05:00,
2013-02-22 12:08:00,47.8,28.6,30.06,NE,42,3.0,7.0,47,0.00,,,0.00,VWS V14.01,2013-02-22 18:08:00,
2013-02-22 12:10:00,51.7,31.6,30.01,NNE,16,3.0,10.0,46,0.00,,,0.00,VWS V14.01,2013-02-22 18:10:00,
2013-02-22 12:13:00,48.0,29.3,30.05,NNE,32,1.0,5.0,48,0.00,,,0.00,VWS V14.01,2013-02-22 18:13:00,
2013-02-22 12:15:00,52.2,31.5,30.00,North,5,3.0,12.0,45,0.00,,,0.00,VWS V14.01,2013-02-22 18:15:00,
2013-02-22 12:18:00,48.7,29.9,30.05,ENE,67,4.0,9.0,48,0.00,,,0.00,VWS V14.01,2013-02-22 18:18:00,
2013-02-22 12:20:00,52.6,31.9,30.00,NNE,25,7.0,13.0,45,0.00,,,0.00,VWS V14.01,2013-02-22 18:20:00,
2013-02-22 12:23:00,49.3,30.5,30.05,NNW,348,9.0,10.0,48,0.00,,,0.00,VWS V14.01,2013-02-22 18:23:00,
2013-02-22 12:25:00,52.3,32.2,30.00,NE,42,4.0,10.0,46,0.00,,,0.00,VWS V14.01,2013-02-22 18:25:00,
2013-02-22 12:28:00,49.0,29.7,30.04,NE,42,7.0,9.0,47,0.00,,,0.00,VWS V14.01,2013-02-22 18:28:00,
2013-02-22 12:30:00,52.9,32.7,30.00,NNE,14,7.0,17.0,46,0.00,,,0.00,VWS V14.01,2013-02-22 18:30:00,
2013-02-22 12:33:00,48.8,30.5,30.04,NNE,19,5.0,7.0,49,0.00,,,0.00,VWS V14.01,2013-02-22 18:33:00,
2013-02-22 12:35:00,52.8,32.1,29.99,North,11,2.0,10.0,45,0.00,,,0.00,VWS V14.01,2013-02-22 18:35:00,
2013-02-22 12:38:00,49.3,31.0,30.04,NNW,328,6.0,7.0,49,0.00,,,0.00,VWS V14.01,2013-02-22 18:38:00,
2013-02-22 12:40:00,53.2,31.9,30.00,NNE,26,4.0,11.0,44,0.00,,,0.00,VWS V14.01,2013-02-22 18:40:00,
2013-02-22 12:43:00,49.4,30.0,30.03,NNW,344,6.0,9.0,47,0.00,,,0.00,VWS V14.01,2013-02-22 18:43:00,
2013-02-22 12:45:00,53.1,31.8,29.99,NNE,22,10.0,10.0,44,0.00,,,0.00,VWS V14.01,2013-02-22 18:45:00,
2013-02-22 12:48:00,50.3,30.9,30.03,North,354,9.0,14.0,47,0.00,,,0.00,VWS V14.01,2013-02-22 18:48:00,
2013-02-22 12:50:00,53.1,31.2,29.99,NNE,29,3.0,15.0,43,0.00,,,0.00,VWS V14.01,2013-02-22 18:50:00,
2013-02-22 12:53:00,50.5,31.0,30.02,NNE,28,11.0,14.0,47,0.00,,,0.00,VWS V14.01,2013-02-22 18:53:00,
2013-02-22 12:55:00,53.7,32.3,29.98,NE,53,7.0,12.0,44,0.00,,,0.00,VWS V14.01,2013-02-22 18:55:00,
2013-02-22 12:58:00,50.7,30.7,30.02,NE,36,8.0,9.0,46,0.00,,,0.00,VWS V14.01,2013-02-22 18:58:00,
2013-02-22 13:00:00,53.5,32.1,29.98,NE,44,5.0,9.0,44,0.00,,,0.00,VWS V14.01,2013-02-22 19:00:00,
2013-02-22 13:02:00,50.9,30.9,30.01,NW,322,2.0,7.0,46,0.00,,,0.00,VWS V14.01,2013-02-22 19:02:00,
2013-02-22 13:05:00,53.9,32.5,29.97,NE,48,7.0,9.0,44,0.00,,,0.00,VWS V14.01,2013-02-22 19:05:00,
2013-02-22 13:07:00,51.4,31.9,30.01,North,5,8.0,10.0,47,0.00,,,0.00,VWS V14.01,2013-02-22 19:07:00,
2013-02-22 13:10:00,54.3,32.9,29.97,NE,52,6.0,9.0,44,0.00,,,0.00,VWS V14.01,2013-02-22 19:10:00,
2013-02-22 13:12:00,52.2,32.1,30.00,NE,48,5.0,12.0,46,0.00,,,0.00,VWS V14.01,2013-02-22 19:12:00,
2013-02-22 13:15:00,54.1,32.7,29.97,NE,49,3.0,10.0,44,0.00,,,0.00,VWS V14.01,2013-02-22 19:15:00,
2013-02-22 13:17:00,52.2,32.6,30.00,ENE,70,8.0,8.0,47,0.00,,,0.00,VWS V14.01,2013-02-22 19:17:00,
2013-02-22 13:20:00,54.6,32.6,29.97,NE,43,7.0,12.0,43,0.00,,,0.00,VWS V14.01,2013-02-22 19:20:00,
2013-02-22 13:22:00,52.4,31.1,30.00,NNE,28,5.0,10.0,44,0.00,,,0.00,VWS V14.01,2013-02-22 19:22:00,
2013-02-22 13:25:00,55.1,32.4,29.97,East,80,4.0,9.0,42,0.00,,,0.00,VWS V14.01,2013-02-22 19:25:00,
2013-02-22 13:27:00,52.5,31.8,30.00,ENE,71,4.0,6.0,45,0.00,,,0.00,VWS V14.01,2013-02-22 19:27:00,
2013-02-22 13:30:00,55.2,33.1,29.96,East,80,8.0,9.0,43,0.00,,,0.00,VWS V14.01,2013-02-22 19:30:00,
2013-02-22 13:32:00,53.0,32.2,29.99,East,84,7.0,10.0,45,0.00,,,0.00,VWS V14.01,2013-02-22 19:32:00,
2013-02-22 13:35:00,55.3,32.6,29.96,NNE,12,4.0,8.0,42,0.00,,,0.00,VWS V14.01,2013-02-22 19:35:00,
2013-02-22 13:37:00,53.1,32.3,29.99,NNE,21,6.0,11.0,45,0.00,,,0.00,VWS V14.01,2013-02-22 19:37:00,
2013-02-22 13:40:00,55.7,33.0,29.96,NNE,19,5.0,9.0,42,0.00,,,0.00,VWS V14.01,2013-02-22 19:40:00,
2013-02-22 13:42:00,53.2,31.3,29.99,East,91,3.0,7.0,43,0.00,,,0.00,VWS V14.01,2013-02-22 19:42:00,
2013-02-22 13:45:00,55.8,32.5,29.96,NNE,26,7.0,8.0,41,0.00,,,0.00,VWS V14.01,2013-02-22 19:45:00,
2013-02-22 13:47:00,52.9,31.0,29.99,East,80,5.0,9.0,43,0.00,,,0.00,VWS V14.01,2013-02-22 19:47:00,
2013-02-22 13:50:00,56.0,32.7,29.96,NNE,33,4.0,9.0,41,0.00,,,0.00,VWS V14.01,2013-02-22 19:50:00,
2013-02-22 13:52:00,53.2,33.0,29.99,NE,42,6.0,10.0,46,0.00,,,0.00,VWS V14.01,2013-02-22 19:52:00,
2013-02-22 13:55:00,56.2,32.2,29.96,NNE,16,3.0,6.0,40,0.00,,,0.00,VWS V14.01,2013-02-22 19:55:00,
2013-02-22 13:57:00,53.7,31.8,29.98,ESE,104,3.0,9.0,43,0.00,,,0.00,VWS V14.01,2013-02-22 19:57:00,
2013-02-22 14:00:00,56.3,32.9,29.95,NNW,336,5.0,10.0,41,0.00,,,0.00,VWS V14.01,2013-02-22 20:00:00,
2013-02-22 14:02:00,53.6,32.2,29.98,ENE,60,7.0,7.0,44,0.00,,,0.00,VWS V14.01,2013-02-22 20:02:00,
2013-02-22 14:05:00,56.6,32.6,29.95,NNW,348,6.0,10.0,40,0.00,,,0.00,VWS V14.01,2013-02-22 20:05:00,
2013-02-22 14:07:00,54.0,32.0,29.97,NNE,21,3.0,8.0,43,0.00,,,0.00,VWS V14.01,2013-02-22 20:07:00,
2013-02-22 14:10:00,56.8,33.4,29.96,ESE,113,3.0,7.0,41,0.00,,,0.00,VWS V14.01,2013-02-22 20:10:00,
2013-02-22 14:12:00,54.2,32.2,29.97,North,352,5.0,10.0,43,0.00,,,0.00,VWS V14.01,2013-02-22 20:12:00,
2013-02-22 14:15:00,57.0,32.3,29.95,ESE,104,4.0,10.0,39,0.00,,,0.00,VWS V14.01,2013-02-22 20:15:00,
2013-02-22 14:17:00,54.4,32.4,29.97,ENE,63,5.0,9.0,43,0.00,,,0.00,VWS V14.01,2013-02-22 20:17:00,
2013-02-22 14:20:00,57.2,33.1,29.95,East,90,2.0,7.0,40,0.00,,,0.00,VWS V14.01,2013-02-22 20:20:00,
2013-02-22 14:22:00,55.0,32.3,29.97,NNE,21,3.0,9.0,42,0.00,,,0.00,VWS V14.01,2013-02-22 20:22:00,
2013-02-22 14:25:00,58.0,33.8,29.95,East,88,6.0,8.0,40,0.00,,,0.00,VWS V14.01,2013-02-22 20:25:00,
2013-02-22 14:27:00,55.0,32.9,29.96,NE,52,3.0,7.0,43,0.00,,,0.00,VWS V14.01,2013-02-22 20:27:00,
2013-02-22 14:30:00,57.8,33.0,29.95,East,88,5.0,8.0,39,0.00,,,0.00,VWS V14.01,2013-02-22 20:30:00,
2013-02-22 14:32:00,55.2,31.9,29.96,ENE,68,2.0,8.0,41,0.00,,,0.00,VWS V14.01,2013-02-22 20:32:00,
2013-02-22 14:35:00,57.5,32.8,29.95,NE,37,4.0,9.0,39,0.00,,,0.00,VWS V14.01,2013-02-22 20:35:00,
2013-02-22 14:37:00,55.5,32.2,29.96,NNE,18,1.0,9.0,41,0.00,,,0.00,VWS V14.01,2013-02-22 20:37:00,
2013-02-22 14:40:00,57.7,32.9,29.94,NNE,25,6.0,8.0,39,0.00,,,0.00,VWS V14.01,2013-02-22 20:40:00,
2013-02-22 14:42:00,55.8,32.5,29.96,NNE,19,7.0,8.0,41,0.00,,,0.00,VWS V14.01,2013-02-22 20:42:00,
2013-02-22 14:45:00,57.4,32.7,29.94,ENE,73,7.0,8.0,39,0.00,,,0.00,VWS V14.01,2013-02-22 20:45:00,
2013-02-22 14:47:00,55.9,32.6,29.96,NE,53,3.0,9.0,41,0.00,,,0.00,VWS V14.01,2013-02-22 20:47:00,
2013-02-22 14:50:00,57.3,33.8,29.94,North,9,6.0,8.0,41,0.00,,,0.00,VWS V14.01,2013-02-22 20:50:00,
2013-02-22 14:52:00,56.0,32.7,29.96,NNE,22,3.0,6.0,41,0.00,,,0.00,VWS V14.01,2013-02-22 20:52:00,
2013-02-22 14:55:00,57.2,33.1,29.94,ENE,61,5.0,7.0,40,0.00,,,0.00,VWS V14.01,2013-02-22 20:55:00,
2013-02-22 14:57:00,56.3,32.3,29.96,NNE,13,8.0,10.0,40,0.00,,,0.00,VWS V14.01,2013-02-22 20:57:00,
2013-02-22 15:00:00,57.4,32.7,29.94,NE,54,3.0,7.0,39,0.00,,,0.00,VWS V14.01,2013-02-22 21:00:00,
2013-02-22 15:02:00,56.4,33.0,29.95,North,352,5.0,5.0,41,0.00,,,0.00,VWS V14.01,2013-02-22 21:02:00,
2013-02-22 15:05:00,57.4,33.3,29.94,NNE,14,7.0,9.0,40,0.00,,,0.00,VWS V14.01,2013-02-22 21:05:00,
2013-02-22 15:07:00,56.6,32.6,29.95,NNE,18,3.0,7.0,40,0.00,,,0.00,VWS V14.01,2013-02-22 21:07:00,
2013-02-22 15:10:00,57.2,32.5,29.94,NNE,26,9.0,10.0,39,0.00,,,0.00,VWS V14.01,2013-02-22 21:10:00,
2013-02-22 15:12:00,57.0,32.9,29.95,NE,50,6.0,6.0,40,0.00,,,0.00,VWS V14.01,2013-02-22 21:12:00,
2013-02-22 15:15:00,57.4,33.9,29.93,ENE,64,4.0,9.0,41,0.00,,,0.00,VWS V14.01,2013-02-22 21:15:00,
2013-02-22 15:17:00,57.0,32.9,29.95,SE,126,4.0,7.0,40,0.00,,,0.00,VWS V14.01,2013-02-22 21:17:00,
2013-02-22 15:20:00,58.0,34.5,29.93,NE,36,4.0,9.0,41,0.00,,,0.00,VWS V14.01,2013-02-22 21:20:00,
2013-02-22 15:22:00,57.6,34.7,29.95,East,99,5.0,6.0,42,0.00,,,0.00,VWS V14.01,2013-02-22 21:22:00,
2013-02-22 15:25:00,58.2,33.4,29.94,NE,40,6.0,8.0,39,0.00,,,0.00,VWS V14.01,2013-02-22 21:25:00,
2013-02-22 15:27:00,57.9,33.1,29.95,NE,53,3.0,8.0,39,0.00,,,0.00,VWS V14.01,2013-02-22 21:27:00,
2013-02-22 15:30:00,57.4,32.7,29.94,NNE,15,4.0,8.0,39,0.00,,,0.00,VWS V14.01,2013-02-22 21:30:00,
2013-02-22 15:32:00,57.6,32.8,29.95,NE,40,6.0,7.0,39,0.00,,,0.00,VWS V14.01,2013-02-22 21:32:00,
2013-02-22 15:35:00,57.0,33.5,29.94,East,82,7.0,7.0,41,0.00,,,0.00,VWS V14.01,2013-02-22 21:35:00,
2013-02-22 15:37:00,57.7,33.6,29.94,NE,47,3.0,7.0,40,0.00,,,0.00,VWS V14.01,2013-02-22 21:37:00,
2013-02-22 15:40:00,57.0,33.5,29.94,ESE,104,6.0,8.0,41,0.00,,,0.00,VWS V14.01,2013-02-22 21:40:00,
2013-02-22 15:42:00,57.5,32.8,29.94,NNE,24,8.0,8.0,39,0.00,,,0.00,VWS V14.01,2013-02-22 21:42:00,
2013-02-22 15:45:00,56.9,33.5,29.94,NE,52,4.0,8.0,41,0.00,,,0.00,VWS V14.01,2013-02-22 21:45:00,
2013-02-22 15:47:00,57.2,32.5,29.94,NNE,24,3.0,8.0,39,0.00,,,0.00,VWS V14.01,2013-02-22 21:47:00,
2013-02-22 15:50:00,56.7,33.3,29.94,NE,45,4.0,9.0,41,0.00,,,0.00,VWS V14.01,2013-02-22 21:50:00,
2013-02-22 15:52:00,57.2,33.1,29.94,NNE,12,4.0,6.0,40,0.00,,,0.00,VWS V14.01,2013-02-22 21:52:00,
2013-02-22 15:55:00,56.5,33.1,29.94,NNE,14,10.0,11.0,41,0.00,,,0.00,VWS V14.01,2013-02-22 21:55:00,
2013-02-22 15:57:00,57.2,34.3,29.94,NE,39,4.0,7.0,42,0.00,,,0.00,VWS V14.01,2013-02-22 21:57:00,
2013-02-22 16:00:00,56.3,32.9,29.94,North,1,7.0,10.0,41,0.00,,,0.00,VWS V14.01,2013-02-22 22:00:00,
2013-02-22 16:02:00,57.4,33.3,29.94,NNE,30,8.0,8.0,40,0.00,,,0.00,VWS V14.01,2013-02-22 22:02:00,
2013-02-22 16:05:00,56.2,32.8,29.95,NNE,14,7.0,9.0,41,0.00,,,0.00,VWS V14.01,2013-02-22 22:05:00,
2013-02-22 16:07:00,57.3,32.6,29.94,NE,40,7.0,9.0,39,0.00,,,0.00,VWS V14.01,2013-02-22 22:07:00,
2013-02-22 16:10:00,56.3,33.5,29.95,NE,49,6.0,10.0,42,0.00,,,0.00,VWS V14.01,2013-02-22 22:10:00,
2013-02-22 16:12:00,57.1,33.6,29.94,ENE,70,6.0,9.0,41,0.00,,,0.00,VWS V14.01,2013-02-22 22:12:00,
2013-02-22 16:15:00,56.2,32.8,29.96,NNE,33,5.0,8.0,41,0.00,,,0.00,VWS V14.01,2013-02-22 22:15:00,
2013-02-22 16:17:00,57.5,32.8,29.93,NE,52,7.0,9.0,39,0.00,,,0.00,VWS V14.01,2013-02-22 22:17:00,
2013-02-22 16:20:00,56.1,33.3,29.96,ENE,57,7.0,8.0,42,0.00,,,0.00,VWS V14.01,2013-02-22 22:20:00,
2013-02-22 16:22:00,58.1,33.9,29.93,East,80,5.0,7.0,40,0.00,,,0.00,VWS V14.01,2013-02-22 22:22:00,
2013-02-22 16:25:00,55.9,33.2,29.95,NNE,22,5.0,9.0,42,0.00,,,0.00,VWS V14.01,2013-02-22 22:25:00,
2013-02-22 16:27:00,57.9,33.1,29.94,NNE,16,3.0,8.0,39,0.00,,,0.00,VWS V14.01,2013-02-22 22:27:00,
2013-02-22 16:30:00,55.8,33.1,29.96,NNE,31,5.0,8.0,42,0.00,,,0.00,VWS V14.01,2013-02-22 22:30:00,
2013-02-22 16:32:00,57.1,32.4,29.94,NNE,13,6.0,7.0,39,0.00,,,0.00,VWS V14.01,2013-02-22 22:32:00,
2013-02-22 16:35:00,55.6,32.9,29.96,NE,37,4.0,8.0,42,0.00,,,0.00,VWS V14.01,2013-02-22 22:35:00,
2013-02-22 16:37:00,57.0,34.2,29.94,ENE,71,5.0,8.0,42,0.00,,,0.00,VWS V14.01,2013-02-22 22:37:00,
2013-02-22 16:40:00,55.5,33.4,29.97,NNE,19,5.0,8.0,43,0.00,,,0.00,VWS V14.01,2013-02-22 22:40:00,
2013-02-22 16:42:00,57.1,33.0,29.93,NNE,33,5.0,8.0,40,0.00,,,0.00,VWS V14.01,2013-02-22 22:42:00,
2013-02-22 16:45:00,55.3,33.2,29.97,NE,45,3.0,6.0,43,0.00,,,0.00,VWS V14.01,2013-02-22 22:45:00,
2013-02-22 16:47:00,56.8,33.4,29.94,NNE,33,5.0,8.0,41,0.00,,,0.00,VWS V14.01,2013-02-22 22:47:00,
2013-02-22 16:50:00,55.2,33.1,29.97,NNE,29,4.0,7.0,43,0.00,,,0.00,VWS V14.01,2013-02-22 22:50:00,
2013-02-22 16:52:00,56.6,33.2,29.94,NNE,18,11.0,11.0,41,0.00,,,0.00,VWS V14.01,2013-02-22 22:52:00,
2013-02-22 16:55:00,55.1,33.0,29.97,NNE,29,6.0,8.0,43,0.00,,,0.00,VWS V14.01,2013-02-22 22:55:00,
2013-02-22 16:57:00,56.3,33.5,29.94,NNE,32,6.0,10.0,42,0.00,,,0.00,VWS V14.01,2013-02-22 22:57:00,
2013-02-22 17:00:00,54.9,32.8,29.97,NE,43,5.0,7.0,43,0.00,,,0.00,VWS V14.01,2013-02-22 23:00:00,
2013-02-22 17:02:00,56.2,32.8,29.94,NNE,24,6.0,9.0,41,0.00,,,0.00,VWS V14.01,2013-02-22 23:02:00,
2013-02-22 17:05:00,54.7,33.2,29.97,NNE,32,4.0,6.0,44,0.00,,,0.00,VWS V14.01,2013-02-22 23:05:00,
2013-02-22 17:07:00,56.2,32.8,29.95,NNE,33,4.0,10.0,41,0.00,,,0.00,VWS V14.01,2013-02-22 23:07:00,
2013-02-22 17:10:00,54.6,33.1,29.97,NNE,30,5.0,7.0,44,0.00,,,0.00,VWS V14.01,2013-02-22 23:10:00,
2013-02-22 17:12:00,56.3,33.5,29.95,NNE,26,7.0,8.0,42,0.00,,,0.00,VWS V14.01,2013-02-22 23:12:00,
2013-02-22 17:15:00,54.5,33.0,29.97,NNE,23,4.0,6.0,44,0.00,,,0.00,VWS V14.01,2013-02-22 23:15:00,
2013-02-22 17:17:00,56.2,32.8,29.96,NNE,19,3.0,8.0,41,0.00,,,0.00,VWS V14.01,2013-02-22 23:17:00,
2013-02-22 17:20:00,54.4,33.0,29.98,NNE,18,4.0,9.0,44,0.00,,,0.00,VWS V14.01,2013-02-22 23:20:00,
2013-02-22 17:22:00,56.0,32.7,29.95,NE,40,6.0,8.0,41,0.00,,,0.00,VWS V14.01,2013-02-22 23:22:00,
2013-02-22 17:25:00,54.1,33.2,29.98,North,353,4.0,7.0,45,0.00,,,0.00,VWS V14.01,2013-02-22 23:25:00,
2013-02-22 17:27:00,55.9,33.2,29.95,North,5,5.0,6.0,42,0.00,,,0.00,VWS V14.01,2013-02-22 23:27:00,
2013-02-22 17:30:00,53.8,33.0,29.98,NNE,13,5.0,11.0,45,0.00,,,0.00,VWS V14.01,2013-02-22 23:30:00,
2013-02-22 17:32:00,55.7,33.0,29.96,NE,48,5.0,7.0,42,0.00,,,0.00,VWS V14.01,2013-02-22 23:32:00,
2013-02-22 17:35:00,53.5,32.7,29.99,NNE,14,11.0,12.0,45,0.00,,,0.00,VWS V14.01,2013-02-22 23:35:00,
2013-02-22 17:37:00,55.6,33.5,29.96,NNE,32,4.0,8.0,43,0.00,,,0.00,VWS V14.01,2013-02-22 23:37:00,
2013-02-22 17:40:00,53.3,32.5,29.99,NNE,13,8.0,11.0,45,0.00,,,0.00,VWS V14.01,2013-02-22 23:40:00,
2013-02-22 17:42:00,55.4,33.3,29.97,NE,40,3.0,5.0,43,0.00,,,0.00,VWS V14.01,2013-02-22 23:42:00,
2013-02-22 17:45:00,53.0,32.8,29.99,North,360,5.0,10.0,46,0.00,,,0.00,VWS V14.01,2013-02-22 23:45:00,
2013-02-22 17:47:00,55.3,33.2,29.97,NNE,21,4.0,4.0,43,0.00,,,0.00,VWS V14.01,2013-02-22 23:47:00,
2013-02-22 17:50:00,52.8,32.6,29.99,NNE,14,6.0,11.0,46,0.00,,,0.00,VWS V14.01,2013-02-22 23:50:00,
2013-02-22 17:52:00,55.1,33.0,29.97,NE,50,5.0,6.0,43,0.00,,,0.00,VWS V14.01,2013-02-22 23:52:00,
2013-02-22 17:55:00,52.6,32.4,30.00,NNE,15,7.0,11.0,46,0.00,,,0.00,VWS V14.01,2013-02-22 23:55:00,
2013-02-22 17:57:00,55.0,33.5,29.97,NE,51,5.0,6.0,44,0.00,,,0.00,VWS V14.01,2013-02-22 23:57:00,
2013-02-22 18:00:00,52.5,32.3,30.00,North,2,8.0,11.0,46,0.00,,,0.00,VWS V14.01,2013-02-23 00:00:00,
2013-02-22 18:02:00,54.9,32.8,29.97,NE,50,5.0,5.0,43,0.00,,,0.00,VWS V14.01,2013-02-23 00:02:00,
2013-02-22 18:05:00,52.2,32.6,30.00,North,5,8.0,11.0,47,0.00,,,0.00,VWS V14.01,2013-02-23 00:05:00,
2013-02-22 18:07:00,54.7,33.2,29.97,NE,36,4.0,6.0,44,0.00,,,0.00,VWS V14.01,2013-02-23 00:07:00,
2013-02-22 18:10:00,52.1,32.5,30.01,NNE,21,6.0,10.0,47,0.00,,,0.00,VWS V14.01,2013-02-23 00:10:00,
2013-02-22 18:12:00,54.6,33.1,29.97,NE,40,4.0,6.0,44,0.00,,,0.00,VWS V14.01,2013-02-23 00:12:00,
2013-02-22 18:15:00,51.9,32.3,30.01,North,7,8.0,11.0,47,0.00,,,0.00,VWS V14.01,2013-02-23 00:15:00,
2013-02-22 18:17:00,54.4,33.0,29.98,North,11,3.0,5.0,44,0.00,,,0.00,VWS V14.01,2013-02-23 00:17:00,
2013-02-22 18:20:00,51.8,32.2,30.01,North,3,6.0,11.0,47,0.00,,,0.00,VWS V14.01,2013-02-23 00:20:00,
2013-02-22 18:22:00,54.3,32.9,29.98,NNE,12,7.0,7.0,44,0.00,,,0.00,VWS V14.01,2013-02-23 00:22:00,
2013-02-22 18:25:00,51.6,32.6,30.01,North,351,7.0,10.0,48,0.00,,,0.00,VWS V14.01,2013-02-23 00:25:00,
2013-02-22 18:27:00,54.0,33.2,29.98,NNE,20,7.0,9.0,45,0.00,,,0.00,VWS V14.01,2013-02-23 00:27:00,
2013-02-22 18:30:00,51.4,32.4,30.02,North,3,5.0,8.0,48,0.00,,,0.00,VWS V14.01,2013-02-23 00:30:00,
2013-02-22 18:32:00,53.7,32.9,29.99,North,357,6.0,8.0,45,0.00,,,0.00,VWS V14.01,2013-02-23 00:32:00,
2013-02-22 18:35:00,51.3,32.3,30.02,NNE,15,5.0,10.0,48,0.00,,,0.00,VWS V14.01,2013-02-23 00:35:00,
2013-02-22 18:37:00,53.5,33.2,29.99,North,11,5.0,11.0,46,0.00,,,0.00,VWS V14.01,2013-02-23 00:37:00,
2013-02-22 18:40:00,51.1,32.6,30.02,North,7,5.0,9.0,49,0.00,,,0.00,VWS V14.01,2013-02-23 00:40:00,
2013-02-22 18:42:00,53.2,33.0,29.99,North,360,5.0,10.0,46,0.00,,,0.00,VWS V14.01,2013-02-23 00:42:00,
2013-02-22 18:45:00,50.9,32.4,30.02,NNE,14,5.0,7.0,49,0.00,,,0.00,VWS V14.01,2013-02-23 00:45:00,
2013-02-22 18:47:00,52.9,32.7,29.99,NNE,21,6.0,11.0,46,0.00,,,0.00,VWS V14.01,2013-02-23 00:47:00,
2013-02-22 18:50:00,50.9,32.4,30.02,NNE,16,2.0,6.0,49,0.00,,,0.00,VWS V14.01,2013-02-23 00:50:00,
2013-02-22 18:52:00,52.8,32.6,30.00,North,360,8.0,10.0,46,0.00,,,0.00,VWS V14.01,2013-02-23 00:52:00,
2013-02-22 18:55:00,50.8,32.8,30.02,NNE,25,3.0,9.0,50,0.00,,,0.00,VWS V14.01,2013-02-23 00:55:00,
2013-02-22 18:57:00,52.6,32.4,30.00,North,1,5.0,10.0,46,0.00,,,0.00,VWS V14.01,2013-02-23 00:57:00,
2013-02-22 19:00:00,50.8,32.8,30.02,NNE,14,7.0,12.0,50,0.00,,,0.00,VWS V14.01,2013-02-23 01:00:00,
2013-02-22 19:02:00,52.4,32.8,30.00,North,9,8.0,10.0,47,0.00,,,0.00,VWS V14.01,2013-02-23 01:02:00,
2013-02-22 19:05:00,50.8,32.8,30.02,NNE,29,6.0,12.0,50,0.00,,,0.00,VWS V14.01,2013-02-23 01:05:00,
2013-02-22 19:07:00,52.2,32.6,30.00,North,350,4.0,8.0,47,0.00,,,0.00,VWS V14.01,2013-02-23 01:07:00,
2013-02-22 19:10:00,50.8,32.8,30.03,NE,39,5.0,10.0,50,0.00,,,0.00,VWS V14.01,2013-02-23 01:10:00,
2013-02-22 19:12:00,52.0,32.4,30.01,NNE,16,9.0,9.0,47,0.00,,,0.00,VWS V14.01,2013-02-23 01:12:00,
2013-02-22 19:15:00,50.7,32.8,30.03,NNE,30,7.0,11.0,50,0.00,,,0.00,VWS V14.01,2013-02-23 01:15:00,
2013-02-22 19:17:00,51.9,32.3,30.01,North,5,11.0,11.0,47,0.00,,,0.00,VWS V14.01,2013-02-23 01:17:00,
2013-02-22 19:20:00,50.6,32.7,30.03,NE,43,4.0,9.0,50,0.00,,,0.00,VWS V14.01,2013-02-23 01:20:00,
2013-02-22 19:22:00,51.7,32.1,30.01,North,357,7.0,10.0,47,0.00,,,0.00,VWS V14.01,2013-02-23 01:22:00,
2013-02-22 19:25:00,50.4,33.0,30.03,NNE,26,5.0,12.0,51,0.00,,,0.00,VWS V14.01,2013-02-23 01:25:00,
2013-02-22 19:27:00,51.5,32.5,30.02,North,360,7.0,7.0,48,0.00,,,0.00,VWS V14.01,2013-02-23 01:27:00,
2013-02-22 19:30:00,50.4,33.0,30.03,NNE,18,8.0,9.0,51,0.00,,,0.00,VWS V14.01,2013-02-23 01:30:00,
2013-02-22 19:32:00,51.4,32.4,30.02,North,358,6.0,6.0,48,0.00,,,0.00,VWS V14.01,2013-02-23 01:32:00,
2013-02-22 19:35:00,50.3,32.9,30.04,North,356,13.0,13.0,51,0.00,,,0.00,VWS V14.01,2013-02-23 01:35:00,
2013-02-22 19:37:00,51.3,32.8,30.02,North,358,5.0,9.0,49,0.00,,,0.00,VWS V14.01,2013-02-23 01:37:00,
2013-02-22 19:40:00,50.2,32.8,30.04,NE,39,7.0,14.0,51,0.00,,,0.00,VWS V14.01,2013-02-23 01:40:00,
2013-02-22 19:42:00,51.0,32.5,30.02,North,4,6.0,6.0,49,0.00,,,0.00,VWS V14.01,2013-02-23 01:42:00,
2013-02-22 19:45:00,50.0,33.1,30.04,NNE,18,2.0,12.0,52,0.00,,,0.00,VWS V14.01,2013-02-23 01:45:00,
2013-02-22 19:47:00,50.9,32.4,30.02,NNE,18,4.0,6.0,49,0.00,,,0.00,VWS V14.01,2013-02-23 01:47:00,
2013-02-22 19:50:00,49.8,32.9,30.04,North,1,4.0,11.0,52,0.00,,,0.00,VWS V14.01,2013-02-23 01:50:00,
2013-02-22 19:51:00,50.8,32.3,30.02,North,360,9.0,9.0,49,0.00,,,0.00,VWS V14.01,2013-02-23 01:51:00,
2013-02-22 19:55:00,49.5,33.1,30.05,North,9,6.0,11.0,53,0.00,,,0.00,VWS V14.01,2013-02-23 01:55:00,
2013-02-22 19:56:00,50.8,32.8,30.02,North,358,12.0,12.0,50,0.00,,,0.00,VWS V14.01,2013-02-23 01:56:00,
2013-02-22 20:00:00,49.3,32.4,30.04,North,5,8.0,10.0,52,0.00,,,0.00,VWS V14.01,2013-02-23 02:00:00,
2013-02-22 20:01:00,50.8,32.3,30.02,NNE,23,8.0,12.0,49,0.00,,,0.00,VWS V14.01,2013-02-23 02:01:00,
2013-02-22 20:05:00,49.1,32.2,30.05,North,349,5.0,11.0,52,0.00,,,0.00,VWS V14.01,2013-02-23 02:05:00,
2013-02-22 20:06:00,50.8,32.8,30.02,NE,47,6.0,10.0,50,0.00,,,0.00,VWS V14.01,2013-02-23 02:06:00,
2013-02-22 20:10:00,49.0,31.7,30.05,North,5,10.0,17.0,51,0.00,,,0.00,VWS V14.01,2013-02-23 02:10:00,
2013-02-22 20:11:00,50.7,32.8,30.03,NE,35,9.0,11.0,50,0.00,,,0.00,VWS V14.01,2013-02-23 02:11:00,
2013-02-22 20:15:00,48.8,31.0,30.05,North,2,12.0,14.0,50,0.00,,,0.00,VWS V14.01,2013-02-23 02:15:00,
2013-02-22 20:16:00,50.7,32.8,30.03,NNE,18,7.0,9.0,50,0.00,,,0.00,VWS V14.01,2013-02-23 02:16:00,
2013-02-22 20:20:00,48.6,30.8,30.05,North,360,7.0,15.0,50,0.00,,,0.00,VWS V14.01,2013-02-23 02:20:00,
2013-02-22 20:21:00,50.5,33.1,30.03,NNE,29,4.0,7.0,51,0.00,,,0.00,VWS V14.01,2013-02-23 02:21:00,
2013-02-22 20:25:00,48.4,30.6,30.05,NNE,18,4.0,13.0,50,0.00,,,0.00,VWS V14.01,2013-02-23 02:25:00,
2013-02-22 20:26:00,50.4,33.0,30.03,North,8,8.0,8.0,51,0.00,,,0.00,VWS V14.01,2013-02-23 02:26:00,
2013-02-22 20:30:00,48.2,30.9,30.05,NNE,28,6.0,11.0,51,0.00,,,0.00,VWS V14.01,2013-02-23 02:30:00,
2013-02-22 20:31:00,50.3,32.9,30.03,NNE,21,7.0,8.0,51,0.00,,,0.00,VWS V14.01,2013-02-23 02:31:00,
2013-02-22 20:35:00,48.0,31.2,30.05,North,2,6.0,10.0,52,0.00,,,0.00,VWS V14.01,2013-02-23 02:35:00,
2013-02-22 20:36:00,50.3,32.9,30.04,NNE,19,5.0,14.0,51,0.00,,,0.00,VWS V14.01,2013-02-23 02:36:00,
2013-02-22 20:40:00,47.9,31.1,30.05,North,350,3.0,10.0,52,0.00,,,0.00,VWS V14.01,2013-02-23 02:40:00,
2013-02-22 20:41:00,50.2,32.8,30.04,NE,42,10.0,10.0,51,0.00,,,0.00,VWS V14.01,2013-02-23 02:41:00,
2013-02-22 20:45:00,47.7,31.0,30.05,NNE,21,7.0,9.0,52,0.00,,,0.00,VWS V14.01,2013-02-23 02:45:00,
2013-02-22 20:46:00,49.9,33.0,30.04,NNE,19,3.0,8.0,52,0.00,,,0.00,VWS V14.01,2013-02-23 02:46:00,
2013-02-22 20:50:00,47.6,30.9,30.05,NNW,334,3.0,8.0,52,0.00,,,0.00,VWS V14.01,2013-02-23 02:50:00,
2013-02-22 20:51:00,49.7,32.8,30.04,North,7,9.0,11.0,52,0.00,,,0.00,VWS V14.01,2013-02-23 02:51:00,
2013-02-22 20:55:00,47.4,30.7,30.06,North,1,4.0,7.0,52,0.00,,,0.00,VWS V14.01,2013-02-23 02:55:00,
2013-02-22 20:56:00,49.5,33.1,30.05,North,357,4.0,9.0,53,0.00,,,0.00,VWS V14.01,2013-02-23 02:56:00,
2013-02-22 21:00:00,47.3,30.6,30.06,North,1,6.0,9.0,52,0.00,,,0.00,VWS V14.01,2013-02-23 03:00:00,
2013-02-22 21:01:00,49.3,32.4,30.04,North,4,7.0,10.0,52,0.00,,,0.00,VWS V14.01,2013-02-23 03:01:00,
2013-02-22 21:05:00,47.1,30.4,30.06,NNW,333,6.0,10.0,52,0.00,,,0.00,VWS V14.01,2013-02-23 03:05:00,
2013-02-22 21:06:00,49.1,32.7,30.05,NNW,348,7.0,7.0,53,0.00,,,0.00,VWS V14.01,2013-02-23 03:06:00,
2013-02-22 21:10:00,47.1,30.4,30.06,NNE,15,3.0,10.0,52,0.00,,,0.00,VWS V14.01,2013-02-23 03:10:00,
2013-02-22 21:11:00,48.9,31.1,30.05,NNE,15,8.0,10.0,50,0.00,,,0.00,VWS V14.01,2013-02-23 03:11:00,
2013-02-22 21:15:00,46.8,30.6,30.06,North,351,5.0,6.0,53,0.00,,,0.00,VWS V14.01,2013-02-23 03:15:00,
2013-02-22 21:16:00,48.7,30.9,30.05,NNE,15,11.0,15.0,50,0.00,,,0.00,VWS V14.01,2013-02-23 03:16:00,
2013-02-22 21:20:00,46.8,30.6,30.06,North,3,4.0,7.0,53,0.00,,,0.00,VWS V14.01,2013-02-23 03:20:00,
2013-02-22 21:21:00,48.5,30.7,30.05,NNE,19,7.0,13.0,50,0.00,,,0.00,VWS V14.01,2013-02-23 03:21:00,
2013-02-22 21:25:00,46.7,30.0,30.06,NNE,18,3.0,8.0,52,0.00,,,0.00,VWS V14.01,2013-02-23 03:25:00,
2013-02-22 21:26:00,48.3,31.0,30.05,North,8,5.0,6.0,51,0.00,,,0.00,VWS V14.01,2013-02-23 03:26:00,
2013-02-22 21:30:00,46.7,30.0,30.06,North,360,6.0,8.0,52,0.00,,,0.00,VWS V14.01,2013-02-23 03:30:00,
2013-02-22 21:31:00,48.2,31.4,30.05,North,5,8.0,9.0,52,0.00,,,0.00,VWS V14.01,2013-02-23 03:31:00,
2013-02-22 21:35:00,46.5,29.8,30.06,North,4,1.0,6.0,52,0.00,,,0.00,VWS V14.01,2013-02-23 03:35:00,
2013-02-22 21:36:00,48.0,31.2,30.05,North,4,6.0,10.0,52,0.00,,,0.00,VWS V14.01,2013-02-23 03:36:00,
2013-02-22 21:40:00,46.4,29.8,30.06,NNE,14,0.0,8.0,52,0.00,,,0.00,VWS V14.01,2013-02-23 03:40:00,
2013-02-22 21:41:00,47.8,31.0,30.05,North,352,4.0,7.0,52,0.00,,,0.00,VWS V14.01,2013-02-23 03:41:00,
2013-02-22 21:45:00,46.2,29.6,30.06,NE,37,1.0,3.0,52,0.00,,,0.00,VWS V14.01,2013-02-23 03:45:00,
2013-02-22 21:46:00,47.7,31.0,30.05,North,356,5.0,8.0,52,0.00,,,0.00,VWS V14.01,2013-02-23 03:46:00,
2013-02-22 21:50:00,45.9,29.3,30.05,NE,49,2.0,4.0,52,0.00,,,0.00,VWS V14.01,2013-02-23 03:50:00,
2013-02-22 21:51:00,47.5,30.8,30.05,NNW,336,1.0,3.0,52,0.00,,,0.00,VWS V14.01,2013-02-23 03:51:00,
2013-02-22 21:55:00,45.8,29.7,30.05,NE,56,2.0,5.0,53,0.00,,,0.00,VWS V14.01,2013-02-23 03:55:00,
2013-02-22 21:56:00,47.4,30.7,30.06,North,356,5.0,8.0,52,0.00,,,0.00,VWS V14.01,2013-02-23 03:56:00,
2013-02-22 22:00:00,45.8,29.2,30.05,NE,46,3.0,6.0,52,0.00,,,0.00,VWS V14.01,2013-02-23 04:00:00,
2013-02-22 22:01:00,47.2,30.5,30.06,NNW,338,2.0,7.0,52,0.00,,,0.00,VWS V14.01,2013-02-23 04:01:00,
2013-02-22 22:05:00,45.7,29.6,30.05,East,81,7.0,9.0,53,0.00,,,0.00,VWS V14.01,2013-02-23 04:05:00,
2013-02-22 22:06:00,47.1,30.4,30.06,North,10,5.0,10.0,52,0.00,,,0.00,VWS V14.01,2013-02-23 04:06:00,
2013-02-22 22:10:00,45.6,29.5,30.05,ENE,64,3.0,11.0,53,0.00,,,0.00,VWS V14.01,2013-02-23 04:10:00,
2013-02-22 22:11:00,47.0,30.3,30.06,NNE,32,4.0,5.0,52,0.00,,,0.00,VWS V14.01,2013-02-23 04:11:00,
2013-02-22 22:15:00,45.3,29.6,30.05,NNE,18,0.0,4.0,54,0.00,,,0.00,VWS V14.01,2013-02-23 04:15:00,
2013-02-22 22:16:00,46.8,30.6,30.06,NNE,16,4.0,7.0,53,0.00,,,0.00,VWS V14.01,2013-02-23 04:16:00,
2013-02-22 22:20:00,45.0,29.4,30.05,NNE,13,0.0,4.0,54,0.00,,,0.00,VWS V14.01,2013-02-23 04:20:00,
2013-02-22 22:21:00,46.8,30.6,30.06,North,2,7.0,8.0,53,0.00,,,0.00,VWS V14.01,2013-02-23 04:21:00,
2013-02-22 22:25:00,44.7,29.5,30.05,ENE,59,1.0,5.0,55,0.00,,,0.00,VWS V14.01,2013-02-23 04:25:00,
2013-02-22 22:26:00,46.7,30.0,30.06,NNE,14,4.0,5.0,52,0.00,,,0.00,VWS V14.01,2013-02-23 04:26:00,
2013-02-22 22:30:00,44.6,29.9,30.05,ENE,77,3.0,7.0,56,0.00,,,0.00,VWS V14.01,2013-02-23 04:30:00,
2013-02-22 22:31:00,46.6,29.9,30.06,North,11,1.0,6.0,52,0.00,,,0.00,VWS V14.01,2013-02-23 04:31:00,
2013-02-22 22:35:00,44.4,29.7,30.05,North,11,2.0,5.0,56,0.00,,,0.00,VWS V14.01,2013-02-23 04:35:00,
2013-02-22 22:36:00,46.4,29.8,30.06,North,3,4.0,5.0,52,0.00,,,0.00,VWS V14.01,2013-02-23 04:36:00,
2013-02-22 22:40:00,44.4,29.7,30.04,NNE,16,2.0,6.0,56,0.00,,,0.00,VWS V14.01,2013-02-23 04:40:00,
2013-02-22 22:41:00,46.3,29.6,30.06,NNE,23,2.0,3.0,52,0.00,,,0.00,VWS V14.01,2013-02-23 04:41:00,
2013-02-22 22:45:00,44.3,29.6,30.04,NE,43,6.0,6.0,56,0.00,,,0.00,VWS V14.01,2013-02-23 04:45:00,
2013-02-22 22:46:00,46.1,29.5,30.06,NNE,29,3.0,3.0,52,0.00,,,0.00,VWS V14.01,2013-02-23 04:46:00,
2013-02-22 22:50:00,44.4,29.7,30.04,East,101,4.0,9.0,56,0.00,,,0.00,VWS V14.01,2013-02-23 04:50:00,
2013-02-22 22:51:00,45.9,29.3,30.05,NNE,33,1.0,2.0,52,0.00,,,0.00,VWS V14.01,2013-02-23 04:51:00,
2013-02-22 22:55:00,44.3,29.6,30.04,NE,45,1.0,7.0,56,0.00,,,0.00,VWS V14.01,2013-02-23 04:55:00,
2013-02-22 22:56:00,45.8,29.7,30.05,NNE,30,3.0,4.0,53,0.00,,,0.00,VWS V14.01,2013-02-23 04:56:00,
2013-02-22 23:00:00,45.8,29.2,30.05,NE,46,3.0,6.0,52,0.00,,,0.00,VWS V14.01,2013-02-23 05:00:00,
2013-02-22 23:05:00,45.7,29.6,30.05,ENE,60,8.0,9.0,53,0.00,,,0.00,VWS V14.01,2013-02-23 05:05:00,
2013-02-22 23:10:00,45.6,29.5,30.05,ENE,67,3.0,4.0,53,0.00,,,0.00,VWS V14.01,2013-02-23 05:10:00,
2013-02-22 23:15:00,45.3,29.6,30.05,NNE,18,0.0,0.0,54,0.00,,,0.00,VWS V14.01,2013-02-23 05:15:00,
2013-02-22 23:20:00,45.0,29.4,30.05,NNE,12,0.0,0.0,54,0.00,,,0.00,VWS V14.01,2013-02-23 05:20:00,
2013-02-22 23:25:00,44.7,29.5,30.05,ENE,59,1.0,5.0,55,0.00,,,0.00,VWS V14.01,2013-02-23 05:25:00,
2013-02-22 23:30:00,44.6,29.9,30.05,ENE,77,3.0,7.0,56,0.00,,,0.00,VWS V14.01,2013-02-23 05:30:00,
2013-02-22 23:35:00,44.4,29.7,30.05,North,11,2.0,5.0,56,0.00,,,0.00,VWS V14.01,2013-02-23 05:35:00,
2013-02-22 23:40:00,44.4,29.7,30.04,NNE,18,2.0,6.0,56,0.00,,,0.00,VWS V14.01,2013-02-23 05:40:00,
2013-02-22 23:45:00,44.3,29.6,30.04,NE,41,5.0,6.0,56,0.00,,,0.00,VWS V14.01,2013-02-23 05:45:00,
2013-02-22 23:50:00,44.4,29.7,30.04,East,101,3.0,9.0,56,0.00,,,0.00,VWS V14.01,2013-02-23 05:50:00,
2013-02-22 23:55:00,44.3,29.6,30.04,NE,45,1.0,7.0,56,0.00,,,0.00,VWS V14.01,2013-02-23 05:55:00,